This is the latest recevied weather packets stored in our database for station/object OE3AOG. If no packets are shown the sender has not sent any weather packets the latest 10 day(s).
| Time | Temp. | Humidity | Pressure | Rain* | Wind** | Luminosity | Snow |
|---|---|---|---|---|---|---|---|
| 1777718722 | 21.67° C | 30% | 1022.4 hPa | 0 mm | - | 691 W/m² | - |
| 1777718130 | 22.22° C | 30% | 1022.5 hPa | 0 mm | - | 689 W/m² | - |
| 1777717522 | 21.67° C | 30% | 1022.7 hPa | 0 mm | - | 687 W/m² | - |
| 1777716930 | 21.67° C | 31% | 1022.8 hPa | 0 mm | - | 679 W/m² | - |
| 1777716331 | 22.22° C | 32% | 1022.9 hPa | 0 mm | - | 672 W/m² | - |
| 1777715731 | 21.67° C | 33% | 1022.9 hPa | 0 mm | - | 665 W/m² | - |
| 1777715122 | 21.67° C | 33% | 1023 hPa | 0 mm | - | 656 W/m² | - |
| 1777714530 | 21.67° C | 34% | 1023.2 hPa | 0 mm | - | 645 W/m² | - |
| 1777713922 | 20.56° C | 36% | 1023.3 hPa | 0 mm | - | 634 W/m² | - |
| 1777713330 | 21.11° C | 36% | 1023.4 hPa | 0 mm | - | 620 W/m² | - |
| 1777712722 | 21.11° C | 36% | 1023.4 hPa | 0 mm | - | 606 W/m² | - |
| 1777712131 | 20.56° C | 37% | 1023.4 hPa | 0 mm | - | 593 W/m² | - |
| 1777711531 | 20° C | 39% | 1023.5 hPa | 0 mm | - | 574 W/m² | - |
| 1777710923 | 20.56° C | 38% | 1023.7 hPa | 0 mm | - | 461 W/m² | - |
| 1777710330 | 20° C | 40% | 1023.7 hPa | 0 mm | - | 532 W/m² | - |
| 1777709722 | 19.44° C | 41% | 1023.8 hPa | 0 mm | - | 519 W/m² | - |
| 1777709130 | 19.44° C | 41% | 1023.8 hPa | 0 mm | - | 502 W/m² | - |
| 1777708523 | 20° C | 40% | 1023.8 hPa | 0 mm | - | 479 W/m² | - |
| 1777707931 | 20° C | 40% | 1023.9 hPa | 0 mm | - | 457 W/m² | - |
| 1777707323 | 20° C | 41% | 1023.9 hPa | 0 mm | - | 431 W/m² | - |
| 1777706730 | 19.44° C | 40% | 1023.8 hPa | 0 mm | - | 406 W/m² | - |
| 1777706122 | 19.44° C | 42% | 1023.8 hPa | 0 mm | - | 381 W/m² | - |
| 1777705530 | 19.44° C | 41% | 1023.9 hPa | 0 mm | - | 356 W/m² | - |
| 1777704931 | 19.44° C | 41% | 1023.8 hPa | 0 mm | - | 331 W/m² | - |
| 1777704323 | 19.44° C | 41% | 1023.9 hPa | 0 mm | - | 306 W/m² | - |
* Rain latest hour (hover to see other rain measurements)
** Current wind speed in m/s (hover to see current wind gust speed)